Weather History for Aberdeen, SD

Change the Weather History Date:

Sunday, April 7, 2013

  Actual Average Record
Temperature  
Mean Temperature 39 °F 40 °F  
Max Temperature 46 °F 52 °F 86 °F (1988)
Min Temperature 32 °F 28 °F 4 °F (1936)
Degree Days  
Heating Degree Days 26 25  
Month to date heating degree days 205 184  
Since 1 July heating degree days 8014 7735  
Cooling Degree Days 0 0  
Month to date cooling degree days 0 0  
Year to date cooling degree days 0 0  
Moisture  
Dew Point 31 °F    
Average Humidity 75    
Maximum Humidity 85    
Minimum Humidity 65    
Precipitation  
Precipitation T in 0.05 in 0.94 in (1922)
Month to date precipitation T 0.32  
Year to date precipitation 2.08 2.50  
Snow  
Snow 0.00 in - - ()
Month to date snowfall 0.0  
Since 1 July snowfall 41.0  
Snow Depth 0.00 in    
Sea Level Pressure  
Sea Level Pressure 29.82 in    
Wind  
Wind Speed 7 mph (ENE)    
Max Wind Speed 13 mph    
Max Gust Speed 17 mph    
Visibility 10 miles    
Events Rain    
T = Trace of Precipitation, MM = Missing Value Source: NWS Daily Summary

Daily Weather History Graph

Daily Weather History Graph

Search for Another Location

Airport:

Trip Planner

Search our weather history database for the weather conditions in past years. The results will help you decide how hot, cold, wet, or windy it might be!

Date:

Astronomy

Apr. 07, 2013 Rise Set
Actual Time 7:02 AM CDT 8:09 PM CDT
Civil Twilight 6:31 AM CDT 8:40 PM CDT
Nautical Twilight 5:55 AM CDT 9:16 PM CDT
Astronomical Twilight 5:17 AM CDT 9:55 PM CDT
Moon 5:27 AM CDT (4/7) 5:37 PM CDT (4/7)
Length of Visible Light 14h 08m
Length of Day
13h 07m
Waning Crescent, 8% of the Moon is Illuminated
Apr 7
Waning Crescent
Apr 10
New
Apr 18
First Quarter
Apr 25
Full
May 2
Last Quarter

Hourly Weather History & Observations

Time (CDT) Temp. Windchill Dew Point Humidity Pressure Visibility Wind Dir Wind Speed Gust Speed Precip Events Conditions
12:53 AM 34.0 °F 25.5 °F 28.0 °F 79% 29.89 in 10.0 mi NNE 11.5 mph - N/A   Overcast
1:53 AM 33.1 °F 26.9 °F 27.0 °F 78% 29.88 in 10.0 mi NE 6.9 mph - N/A   Overcast
2:53 AM 33.1 °F 28.7 °F 27.0 °F 78% 29.91 in 10.0 mi NNE 4.6 mph - N/A   Overcast
3:53 AM 33.1 °F 27.7 °F 27.0 °F 78% 29.90 in 10.0 mi North 5.8 mph - N/A   Overcast
4:53 AM 33.1 °F 30.0 °F 27.0 °F 78% 29.90 in 10.0 mi NE 3.5 mph - N/A   Overcast
5:12 AM 32.0 °F 27.5 °F 26.6 °F 80% 29.87 in 10.0 mi North 4.6 mph - N/A   Overcast
5:53 AM 32.0 °F 26.4 °F 27.0 °F 82% 29.91 in 10.0 mi NE 5.8 mph - N/A   Overcast
6:53 AM 32.0 °F 28.7 °F 27.0 °F 82% 29.91 in 10.0 mi ENE 3.5 mph - N/A   Overcast
7:53 AM 32.0 °F 27.5 °F 27.0 °F 82% 29.92 in 10.0 mi ENE 4.6 mph - N/A   Overcast
8:53 AM 33.1 °F 27.7 °F 28.0 °F 82% 29.92 in 8.0 mi ESE 5.8 mph - 0.00 in Rain Light Rain
9:53 AM 34.0 °F 27.2 °F 28.9 °F 82% 29.90 in 10.0 mi ESE 8.1 mph - 0.00 in   Overcast
10:24 AM 33.8 °F 27.0 °F 28.4 °F 81% 29.85 in 10.0 mi ESE 8.1 mph - N/A   Overcast
10:53 AM 34.0 °F 26.6 °F 28.0 °F 79% 29.89 in 10.0 mi ESE 9.2 mph - N/A   Overcast
11:53 AM 36.0 °F 30.3 °F 28.9 °F 76% 29.89 in 10.0 mi ESE 6.9 mph - N/A   Overcast
12:53 PM 37.0 °F 31.6 °F 30.0 °F 76% 29.86 in 10.0 mi ESE 6.9 mph - N/A   Overcast
1:53 PM 37.0 °F 29.8 °F 30.0 °F 76% 29.83 in 10.0 mi ESE 10.4 mph - N/A   Overcast
2:26 PM 37.4 °F 30.8 °F 30.2 °F 75% 29.77 in 10.0 mi ESE 9.2 mph - N/A   Overcast
2:53 PM 39.0 °F 34.0 °F 32.0 °F 76% 29.80 in 10.0 mi SE 6.9 mph - 0.00 in   Overcast
3:53 PM 41.0 °F 39.0 °F 33.1 °F 73% 29.79 in 10.0 mi ESE 3.5 mph - N/A   Mostly Cloudy
4:53 PM 45.0 °F 39.3 °F 34.0 °F 65% 29.75 in 10.0 mi East 11.5 mph - N/A   Scattered Clouds
5:48 PM 46.4 °F 42.4 °F 35.6 °F 66% 29.72 in 10.0 mi East 8.1 mph - N/A   Mostly Cloudy
5:53 PM 45.0 °F 41.2 °F 35.1 °F 68% 29.76 in 10.0 mi East 6.9 mph - N/A   Overcast
6:50 PM 44.6 °F 39.7 °F 35.6 °F 71% 29.71 in 10.0 mi NE 9.2 mph - N/A   Overcast
6:53 PM 44.1 °F 39.5 °F 36.0 °F 73% 29.74 in 10.0 mi ENE 8.1 mph - N/A   Overcast
7:53 PM 42.1 °F 37.1 °F 36.0 °F 79% 29.74 in 6.0 mi NE 8.1 mph - N/A   Haze
8:53 PM 39.9 °F 33.4 °F 35.1 °F 83% 29.73 in 10.0 mi ENE 10.4 mph - N/A   Overcast
9:00 PM 39.2 °F 33.0 °F 35.6 °F 87% 29.69 in 10.0 mi ENE 9.2 mph - N/A   Overcast
9:33 PM 39.2 °F 33.0 °F 35.6 °F 87% 29.69 in 10.0 mi NE 9.2 mph - N/A   Overcast
9:53 PM 39.0 °F 32.8 °F 35.1 °F 86% 29.74 in 10.0 mi NNE 9.2 mph - N/A   Overcast
10:53 PM 39.0 °F 32.8 °F 34.0 °F 82% 29.74 in 9.0 mi NE 9.2 mph - N/A   Overcast
11:33 PM 37.4 °F 30.8 °F 33.8 °F 87% 29.71 in 9.0 mi NNE 9.2 mph - N/A   Overcast
11:53 PM 37.9 °F 30.5 °F 34.0 °F 86% 29.74 in 8.0 mi NE 11.5 mph - N/A   Overcast